Calgary, Alberta

3:57 AM MDT on June 24, 2018 (GMT -0600)
Calgary International

Weather History for CYYC - September, 2017

Change the Weather History Date:

Wednesday, September 13, 2017

  Actual Average Record
Temperature  
Mean Temperature 44 °F -  
Max Temperature 46 °F 60 °F 80 °F (2013)
Min Temperature 41 °F 35 °F 32 °F (2007)
Degree Days  
Heating Degree Days 21    
Moisture  
Dew Point 41 °F    
Average Humidity 87    
Maximum Humidity 93    
Minimum Humidity 76    
Precipitation  
Precipitation 0.00 in 0.04 in - ()
Sea Level Pressure  
Sea Level Pressure 30.04 in    
Wind  
Wind Speed 9 mph ()    
Max Wind Speed 22 mph    
Max Gust Speed 32 mph    
Visibility 8.3 miles    
Events Rain    
Averages and records for this station are not official NWS values.
T = Trace of Precipitation, MM = Missing Value Source: Averaged Metar Reports

Daily Weather History Graph

Daily Weather History Graph

Search for Another Location

Airport or City:

Astronomy

Sep. 13, 2017 Rise Set
Actual Time 7:08 AM MDT 7:53 PM MDT
Civil Twilight 6:35 AM MDT 8:27 PM MDT
Nautical Twilight 5:55 AM MDT 9:07 PM MDT
Astronomical Twilight 5:12 AM MDT 9:49 PM MDT
Moon No Moon Rise 3:43 PM MDT (9/13)
Length of Visible Light 13h 52m
Length of Day
12h 45m
Last Quarter, 45% of the Moon is Illuminated
Sep 13
Last Quarter
Sep 19
New
Sep 27
First Quarter
Oct 5
Full
Oct 12
Last Quarter

Hourly Weather History & Observations

Time (MDT) Temp. Windchill Dew Point Humidity Pressure Visibility Wind Dir Wind Speed Gust Speed Precip Events Conditions
12:00 AM 46.4 °F 45.2 °F 41.0 °F 81% 30.03 in 10.0 mi SE 3.5 mph - N/A Rain Light Rain
12:46 AM 44.6 °F 40.7 °F 42.8 °F 93% 30.02 in 7.0 mi SSE 6.9 mph - N/A Rain Rain
1:00 AM 44.6 °F 40.7 °F 42.8 °F 93% 30.02 in 7.0 mi South 6.9 mph - N/A Rain Rain
2:00 AM 44.6 °F 38.4 °F 42.8 °F 93% 29.99 in 7.0 mi South 12.7 mph - N/A Rain Light Rain
3:00 AM 44.6 °F 40.7 °F 42.8 °F 93% 29.99 in 10.0 mi South 6.9 mph - N/A Rain Light Rain
4:00 AM 44.6 °F 40.2 °F 42.8 °F 93% 29.97 in 7.0 mi South 8.1 mph - N/A Rain Light Rain
4:14 AM 44.6 °F 41.4 °F 42.8 °F 93% 29.96 in 7.0 mi South 5.8 mph - N/A Rain Light Rain
5:00 AM 44.6 °F 42.2 °F 42.8 °F 93% 29.96 in 7.0 mi South 4.6 mph - N/A Rain Light Rain
6:00 AM 46.4 °F 41.9 °F 42.8 °F 87% 29.98 in 7.0 mi SSE 9.2 mph - N/A Rain Light Rain
6:39 AM 44.6 °F 38.4 °F 42.8 °F 93% 29.97 in 5.0 mi SSE 12.7 mph - N/A   Light Drizzle
7:00 AM 46.4 °F 40.7 °F 42.8 °F 87% 29.99 in 5.0 mi SSE 12.7 mph - N/A   Light Drizzle
7:47 AM 46.4 °F 43.5 °F 42.8 °F 87% 29.99 in 7.0 mi South 5.8 mph - N/A   Overcast
8:00 AM 46.4 °F 42.9 °F 42.8 °F 87% 30.00 in 8.0 mi South 6.9 mph - N/A   Overcast
9:00 AM 46.4 °F 43.5 °F 42.8 °F 87% 30.01 in 7.0 mi South 5.8 mph - N/A   Overcast
9:44 AM 46.4 °F 44.3 °F 42.8 °F 87% 30.00 in 3.0 mi South 4.6 mph - N/A Rain Light Rain
9:52 AM 46.4 °F 45.2 °F 42.8 °F 87% 30.00 in 2.0 mi SW 3.5 mph - N/A Rain Light Rain
10:00 AM 46.4 °F - 44.6 °F 93% 30.00 in 2.0 mi Variable 2.3 mph - N/A Rain Light Rain
11:00 AM 46.4 °F 44.3 °F 44.6 °F 93% 30.01 in 2.0 mi WNW 4.6 mph - N/A Rain Light Rain
11:38 AM 42.8 °F 35.4 °F 41.0 °F 93% 30.03 in 2.0 mi North 15.0 mph 20.7 mph N/A Rain Light Rain
12:00 PM 44.6 °F 38.1 °F 41.0 °F 87% 30.03 in 2.0 mi NNW 13.8 mph 20.7 mph N/A Rain Light Rain
12:04 PM 44.6 °F 37.8 °F 41.0 °F 87% 30.03 in 3.0 mi NNW 15.0 mph 21.9 mph N/A Rain Light Rain
12:45 PM 44.6 °F 37.4 °F 41.0 °F 87% 30.04 in 5.0 mi NNW 16.1 mph - N/A Rain Light Rain
1:00 PM 44.6 °F 37.8 °F 41.0 °F 87% 30.04 in 5.0 mi NNW 15.0 mph 21.9 mph N/A Rain Light Rain
1:50 PM 44.6 °F 37.2 °F 39.2 °F 81% 30.05 in 10.0 mi NNW 17.3 mph 27.6 mph N/A   Overcast
2:00 PM 42.8 °F 34.3 °F 39.2 °F 87% 30.06 in 10.0 mi NNW 19.6 mph 27.6 mph N/A   Overcast
3:00 PM 42.8 °F 33.8 °F 39.2 °F 87% 30.07 in 15.0 mi North 21.9 mph - N/A   Overcast
4:00 PM 44.6 °F 36.6 °F 37.4 °F 76% 30.08 in 15.0 mi North 19.6 mph 32.2 mph N/A   Overcast
5:00 PM 44.6 °F 36.1 °F 37.4 °F 76% 30.09 in 15.0 mi NNW 21.9 mph 27.6 mph N/A   Overcast
6:00 PM 42.8 °F 35.8 °F 37.4 °F 81% 30.11 in 15.0 mi NNW 13.8 mph 28.8 mph N/A   Overcast
6:52 PM 42.8 °F 33.8 °F 37.4 °F 81% 30.12 in 15.0 mi NNW 21.9 mph 28.8 mph N/A   Overcast
7:00 PM 42.8 °F 34.5 °F 37.4 °F 81% 30.13 in 15.0 mi North 18.4 mph 27.6 mph N/A   Overcast
8:00 PM 42.8 °F 35.4 °F 37.4 °F 81% 30.15 in 20.0 mi NNW 15.0 mph - N/A   Overcast
9:00 PM 42.8 °F 36.6 °F 37.4 °F 81% 30.17 in 15.0 mi NNW 11.5 mph 20.7 mph N/A   Mostly Cloudy
10:00 PM 42.8 °F 37.0 °F 37.4 °F 81% 30.17 in 15.0 mi NNW 10.4 mph 17.3 mph N/A   Overcast
11:16 PM 41.0 °F 33.9 °F 37.4 °F 87% 30.18 in 4.0 mi North 12.7 mph - N/A Rain Light Rain